Location: Unspecified
(0.0000°N, 0.0000°E)
Time: 18:18:05
(UTC+00:00)

STARLINK 1061 - Pass Details

Date: 17 January 2020
Orbit: 549 x 551 km, 53.0° (Epoch: 22 January)

Event Time Altitude Azimuth Distance (km) Brightness Sun altitude
Rises 19:12:46 0° 304° (NW) 2,707 7.7 -14.6°
Reaches altitude 10° 19:15:19 10° 289° (WNW) 1,818 7.0 -15.2°
Maximum altitude 19:18:39 23° 236° (SW) 1,181 6.2 -16.0°
Drops below altitude 10° 19:21:59 10° 182° (S) 1,827 6.6 -16.8°
Sets 19:24:34 0° 167° (SSE) 2,725 7.3 -17.4°
